• Processing (Info)

  • MPEC 2010-G26 : 2010 GD6

    The following Minor Planet Electronic Circular may be linked-to from your own Web pages, but must not otherwise be redistributed electronically.

    A form allowing access to any MPEC is at the bottom of this page.


    Read MPEC 2010-G25 Read MPEC 2010-G27


    M.P.E.C. 2010-G26                                Issued 2010 Apr. 5, 16:28 UT
    
         The Minor Planet Electronic Circulars contain information on unusual
             minor planets and routine data on comets.  They are published
       on behalf of Commission 20 of the International Astronomical Union by the
              Minor Planet Center, Smithsonian Astrophysical Observatory,
                              Cambridge, MA 02138, U.S.A.
    
                 Prepared using the Tamkin Foundation Computer Network
    
                                  MPC@CFA.HARVARD.EDU
           URL https://www.minorplanetcenter.org/iau/mpc.html  ISSN 1523-6714
    
                                       2010 GD6
    
    Observations:
         K10G06D* C2010 04 05.25856 09 43 34.35 +62 12 25.3          19.4 V EG026703
         K10G06D  C2010 04 05.26215 09 43 38.94 +62 13 15.0          19.4 V EG026703
         K10G06D  C2010 04 05.26567 09 43 43.70 +62 14 01.5          19.7 V EG026703
         K10G06D  C2010 04 05.26921 09 43 48.42 +62 14 47.6          19.4 V EG026703
         K10G06D  C2010 04 05.29741 09 44 25.71 +62 20 54.4          19.5 V EG026703
         K10G06D  C2010 04 05.29810 09 44 26.63 +62 21 02.4          19.7 V EG026703
         K10G06D  C2010 04 05.29877 09 44 27.49 +62 21 10.6          19.6 V EG026703
         K10G06D  C2010 04 05.29948 09 44 28.67 +62 21 20.6          19.9 V EG026703
         K10G06D  C2010 04 05.30663 09 44 37.81 +62 22 52.7          19.4 R EG026651
         K10G06D  C2010 04 05.30738 09 44 38.60 +62 23 02.9          19.4 R EG026651
         K10G06D  C2010 04 05.30812 09 44 39.74 +62 23 13.6          19.7 R EG026651
         K10G06D  C2010 04 05.32115 09 44 57.24 +62 25 58.9          19.3 R EG026926
         K10G06D  C2010 04 05.32384 09 45 00.95 +62 26 33.2          19.4 R EG026926
         K10G06D  C2010 04 05.32655 09 45 04.58 +62 27 07.6          19.5 R EG026926
         K10G06D  C2010 04 05.32729 09 45 05.65 +62 27 13.7          19.3 V EG026703
         K10G06D  C2010 04 05.32799 09 45 06.62 +62 27 22.9          19.3 V EG026703
         K10G06D  C2010 04 05.32866 09 45 07.38 +62 27 30.8          19.1 V EG026703
         K10G06D  C2010 04 05.32935 09 45 08.49 +62 27 39.7          19.9 V EG026703
    
    Observer details:
    651 Grasslands Observatory, Tucson.  Observer J. E. McGaha.  0.62-m f/5.1
        Newtonian reflector + CCD.
    703 Catalina Sky Survey.  Observer A. Boattini.  Measurers J. D. Ahern,
        E. C. Beshore, A. Boattini, G. J. Garradd, A. R. Gibbs, A. D. Grauer,
        R. E. Hill, R. A. Kowalski, S. M. Larson, R. H. McNaught.  0.68-m Schmidt
        + CCD.
    926 Tenagra II Observatory.  Observers P. R. Holvorcem, M. Schwartz.  Measurer
        P. R. Holvorcem.  0.81-m f/7 Ritchey-Chretien + CCD.
    
    Orbital elements:
    2010 GD6                                                 Earth MOID = 0.0061 AU
    Epoch 2010 July 23.0 TT = JDT 2455400.5                 MPC
    M 229.50613              (2000.0)            P               Q
    n   1.05651906     Peri.  237.52532     +0.39476007     -0.91412610
    a   0.9547386      Node   190.53595     +0.91630981     +0.38432498
    e   0.1162202      Incl.   30.35336     -0.06738556     -0.12910374
    P   0.93           H   23.8           G   0.15           U   9
    Residuals in seconds of arc
    100405 703  0.1+  1.4-    100405 703  0.1-  0.9-    100405 926  0.6+  0.2+
    100405 703  0.8-  0.8+    100405 703  1.5+  0.0     100405 926  0.5+  0.5+
    100405 703  0.1+  0.8+    100405 651  0.1+  1.0-    100405 703  0.1-  0.2-
    100405 703  0.4+  0.3+    100405 651  1.4-  0.3-    100405 703  0.0   0.2+
    100405 703  0.1+  0.4+    100405 651  0.3-  0.9+    100405 703  0.9-  0.3-
    100405 703  0.1+  0.5-    100405 926  0.1-  0.1-    100405 703  0.3+  0.1-
    
    Ephemeris:
    2010 GD6                 a,e,i = 0.95, 0.12, 30                  q = 0.8438
    Date    TT    R. A. (2000) Decl.     Delta      r     Elong.  Phase     V
    2010 04 04    09 11.13   +55 37.7    0.0337   1.009   104.0    74.1    19.0
    2010 04 05    09 37.43   +61 08.1    0.0417   1.010   102.9    74.8    19.5
    2010 04 06    10 00.80   +64 36.0    0.0500   1.012   101.9    75.4    20.0
    2010 04 07    10 21.32   +66 53.0    0.0585   1.014   101.0    75.7    20.3
    2010 04 08    10 39.21   +68 27.0    0.0672   1.015   100.3    76.0    20.6
    2010 04 09    10 54.78   +69 33.5    0.0759   1.017    99.6    76.1    20.9
    2010 04 10    11 08.33   +70 21.8    0.0846   1.018    99.0    76.2    21.1
    2010 04 11    11 20.18   +70 57.5    0.0934   1.020    98.5    76.3    21.4
    2010 04 12    11 30.56   +71 24.3    0.102    1.022    98.0    76.3    21.6
    2010 04 13    11 39.72   +71 44.6    0.111    1.023    97.5    76.3    21.7
    2010 04 14    11 47.83   +72 00.2    0.120    1.025    97.1    76.2    21.9
    
    Timothy B. Spahr             (C) Copyright 2010 MPC           M.P.E.C. 2010-G26
    

    Read MPEC 2010-G25 Read MPEC 2010-G27


    MPEC number:

    Enter an MPEC number in one of the following forms:

    • 1997-B01 (the full form)
    • J97B01 (the packed version of the full form)
    • B01 (the abbreviated form)